Weather History for Olathe, KS

Change the Weather History Date:

Monday, April 8, 2013

  Actual Average Record
Temperature  
Mean Temperature 63 °F 53 °F  
Max Temperature 71 °F 63 °F 87 °F (1978)
Min Temperature 54 °F 43 °F 21 °F (2007)
Degree Days  
Heating Degree Days 2 13  
Month to date heating degree days 111 110  
Since 1 July heating degree days 4589 4627  
Cooling Degree Days 0 0  
Month to date cooling degree days 0 0  
Year to date cooling degree days 1 1  
Growing Degree Days 12 (Base 50)    
Moisture  
Dew Point 57 °F    
Average Humidity 84    
Maximum Humidity 100    
Minimum Humidity 68    
Precipitation  
Precipitation 0.11 in 0.11 in 1.50 in (1974)
Month to date precipitation 0.26 0.75  
Year to date precipitation 5.46 6.07  
Sea Level Pressure  
Sea Level Pressure 29.70 in    
Wind  
Wind Speed 10 mph (South)    
Max Wind Speed 18 mph    
Max Gust Speed 25 mph    
Visibility 8 miles    
Events Rain , Thunderstorm    
T = Trace of Precipitation, MM = Missing Value Source: NWS Daily Summary

Daily Weather History Graph

Daily Weather History Graph

Search for Another Location

Airport:

Trip Planner

Search our weather history database for the weather conditions in past years. The results will help you decide how hot, cold, wet, or windy it might be!

Date:

Astronomy

Apr. 08, 2013 Rise Set
Actual Time 6:52 AM CDT 7:49 PM CDT
Civil Twilight 6:25 AM CDT 8:16 PM CDT
Nautical Twilight 5:53 AM CDT 8:49 PM CDT
Astronomical Twilight 5:19 AM CDT 9:22 PM CDT
Moon 5:42 AM CDT (4/8) 6:25 PM CDT (4/8)
Length of Visible Light 13h 51m
Length of Day
12h 57m
Waning Crescent, 3% of the Moon is Illuminated
Apr 8
Waning Crescent
Apr 10
New
Apr 18
First Quarter
Apr 25
Full
May 2
Last Quarter

Hourly Weather History & Observations

Time (CDT) Temp. Dew Point Humidity Pressure Visibility Wind Dir Wind Speed Gust Speed Precip Events Conditions
12:53 AM 60.1 °F 57.0 °F 90% 29.68 in 8.0 mi SSW 10.4 mph - 0.00 in Thunderstorm Overcast
1:24 AM 60.8 °F 55.4 °F 82% 29.72 in 9.0 mi NW 12.7 mph 17.3 mph N/A Thunderstorm Overcast
1:29 AM 57.2 °F 53.6 °F 88% 29.72 in 9.0 mi WNW 6.9 mph 17.3 mph N/A   Overcast
1:36 AM 60.8 °F 55.4 °F 82% 29.72 in 10.0 mi WNW 10.4 mph 18.4 mph 0.00 in Rain Light Rain
1:43 AM 59.0 °F 55.4 °F 88% 29.72 in 6.0 mi WNW 11.5 mph 18.4 mph 0.03 in Rain Light Rain
1:53 AM 59.0 °F 55.9 °F 90% 29.69 in 3.0 mi West 11.5 mph 18.4 mph 0.09 in Rain Rain
2:53 AM 61.0 °F 57.0 °F 87% 29.68 in 9.0 mi WSW 6.9 mph - 0.02 in   Overcast
3:53 AM 60.1 °F 57.0 °F 90% 29.67 in 8.0 mi WSW 5.8 mph - N/A   Overcast
4:18 AM 59.0 °F 55.4 °F 88% 29.68 in 8.0 mi WSW 5.8 mph - N/A   Mostly Cloudy
4:53 AM 57.0 °F 55.0 °F 93% 29.66 in 6.0 mi SSW 3.5 mph - N/A   Scattered Clouds
5:53 AM 55.0 °F 54.0 °F 96% 29.67 in 3.0 mi South 3.5 mph - N/A   Clear
6:00 AM 55.4 °F 53.6 °F 94% 29.68 in 2.0 mi South 4.6 mph - N/A   Clear
6:12 AM 53.6 °F 53.6 °F 100% 29.68 in 3.0 mi SSE 3.5 mph - N/A   Partly Cloudy
6:53 AM 54.0 °F 54.0 °F 100% 29.69 in 3.0 mi SSE 3.5 mph - N/A   Overcast
7:07 AM 53.6 °F 53.6 °F 100% 29.71 in 2.0 mi South 4.6 mph - N/A   Overcast
7:14 AM 55.4 °F 53.6 °F 94% 29.71 in 1.8 mi South 5.8 mph - N/A   Overcast
7:22 AM 55.4 °F 55.4 °F 100% 29.71 in 2.5 mi South 6.9 mph - N/A   Overcast
7:41 AM 55.4 °F 55.4 °F 100% 29.72 in 4.0 mi South 4.6 mph - N/A   Overcast
7:53 AM 57.0 °F 55.9 °F 96% 29.71 in 5.0 mi SSW 6.9 mph - N/A   Mostly Cloudy
8:53 AM 60.1 °F 57.0 °F 90% 29.71 in 7.0 mi South 8.1 mph - N/A   Clear
9:53 AM 63.0 °F 57.9 °F 84% 29.68 in 9.0 mi South 15.0 mph - N/A   Clear
10:53 AM 66.0 °F 59.0 °F 78% 29.70 in 10.0 mi South 15.0 mph 25.3 mph N/A   Scattered Clouds
11:02 AM 66.2 °F 59.0 °F 78% 29.71 in 10.0 mi SSW 16.1 mph 23.0 mph N/A   Mostly Cloudy
11:53 AM 69.1 °F 60.1 °F 73% 29.71 in 10.0 mi SSW 10.4 mph - N/A   Mostly Cloudy
12:21 PM 71.6 °F 60.8 °F 69% 29.73 in 10.0 mi SW 8.1 mph - N/A   Overcast
12:28 PM 69.8 °F 60.8 °F 73% 29.73 in 10.0 mi SW 9.2 mph - N/A   Overcast
12:53 PM 69.1 °F 60.1 °F 73% 29.71 in 10.0 mi SSW 11.5 mph - N/A   Overcast
1:53 PM 69.1 °F 59.0 °F 70% 29.70 in 10.0 mi South 9.2 mph 17.3 mph N/A   Overcast
2:53 PM 71.1 °F 60.1 °F 68% 29.69 in 10.0 mi South 11.5 mph - N/A   Overcast
3:53 PM 69.1 °F 59.0 °F 70% 29.68 in 10.0 mi SSE 10.4 mph - N/A   Overcast
4:36 PM 69.8 °F 59.0 °F 68% 29.69 in 10.0 mi SSE 8.1 mph - N/A   Overcast
4:53 PM 68.0 °F 59.0 °F 73% 29.67 in 10.0 mi SSE 15.0 mph 18.4 mph N/A   Overcast
5:53 PM 66.9 °F 59.0 °F 76% 29.68 in 10.0 mi SSE 8.1 mph - N/A   Overcast
6:05 PM 66.2 °F 59.0 °F 78% 29.69 in 10.0 mi SSE 9.2 mph - N/A   Overcast
6:53 PM 68.0 °F 59.0 °F 73% 29.68 in 10.0 mi SSE 9.2 mph - N/A   Overcast
7:53 PM 66.9 °F 57.9 °F 73% 29.69 in 10.0 mi SE 5.8 mph - N/A   Overcast
8:53 PM 66.0 °F 59.0 °F 78% 29.70 in 10.0 mi SE 6.9 mph - N/A   Overcast
9:07 PM 66.2 °F 59.0 °F 78% 29.72 in 10.0 mi SSE 11.5 mph 16.1 mph N/A   Overcast
9:22 PM 66.2 °F 59.0 °F 78% 29.73 in 10.0 mi SSE 10.4 mph - N/A   Overcast
9:53 PM 66.0 °F 57.9 °F 75% 29.71 in 10.0 mi SSE 12.7 mph - N/A   Overcast
10:53 PM 66.0 °F 57.9 °F 75% 29.72 in 10.0 mi SSE 10.4 mph - N/A   Overcast
11:53 PM 64.9 °F 57.0 °F 75% 29.70 in 10.0 mi SSE 12.7 mph - N/A   Overcast